GFSSE_sfc_temp_000.txt.gz
Temp
62 65 74 76 77 77 77 77 76 76 77 77 77 77 76 76 76 76 76 76 76 77 78 77 77 76 76 76 75 75 75 73 73 73 73 74 75 78 78 75 75 73 77
63 65 73 76 77 77 76 76 76 76 76 77 77 77 77 76 76 75 75 76 77 77 77 76 75 74 74 73 74 74 73 72 71 71 71 70 72 76 77 75 75 75 77
64 66 70 74 76 76 76 75 75 76 76 77 77 76 76 76 75 74 75 75 75 75 75 74 73 73 72 72 72 72 71 70 69 69 68 65 67 75 78 76 76 77 76
65 65 67 73 75 75 75 75 75 76 76 76 76 75 75 74 74 74 74 74 75 74 74 73 72 71 71 71 71 70 70 69 67 67 62 64 66 73 77 77 77 76 75
62 64 66 71 74 74 75 75 75 76 76 75 75 75 74 74 74 72 72 73 73 73 72 72 71 70 70 70 70 69 69 67 65 61 59 60 61 71 76 76 75 74 73
60 62 67 71 73 74 74 74 74 75 75 75 74 74 74 73 72 71 71 72 71 71 71 70 70 70 70 69 68 68 67 65 61 55 56 60 62 73 76 76 75 74 73
58 60 63 70 72 74 74 74 74 74 75 74 74 73 73 71 71 70 70 70 70 70 70 70 69 69 68 67 67 66 65 63 53 54 54 56 62 74 76 75 75 74 75
58 59 62 67 70 71 72 73 73 73 74 73 73 72 71 70 70 70 70 70 69 69 69 69 68 67 67 66 65 64 63 59 54 52 53 55 68 73 74 73 74 73 74
57 58 59 61 64 67 69 70 71 72 72 72 71 71 70 69 69 69 69 69 69 69 68 67 67 66 66 65 64 62 61 59 48 50 55 54 68 71 72 72 72 72 72
55 56 57 58 59 60 61 66 67 69 70 70 69 68 66 66 67 67 66 68 69 68 67 66 65 65 64 63 62 60 58 56 48 49 50 56 67 70 71 71 71 71 72
53 54 54 55 56 56 57 59 63 66 66 66 64 63 57 51 53 55 59 66 67 66 65 64 63 61 60 60 59 57 54 47 47 47 48 61 65 68 69 70 70 70 71
53 54 53 53 53 53 56 55 55 57 56 54 53 51 49 47 48 52 57 63 64 64 64 63 61 57 51 45 45 50 45 45 45 46 47 60 63 66 68 68 69 69 70
56 55 54 52 51 51 52 51 50 50 49 49 49 47 46 46 46 45 45 45 45 50 45 47 45 44 44 44 44 43 44 43 42 44 49 57 61 64 66 67 68 69 69
52 54 54 52 50 49 49 50 48 49 46 46 46 45 43 42 42 42 41 41 41 40 41 41 41 42 43 44 44 43 43 42 42 43 44 54 58 63 65 67 68 68 69
51 54 52 51 52 51 48 47 47 47 48 46 44 44 43 42 41 41 40 39 39 40 40 40 40 41 42 43 43 43 42 42 42 42 41 52 56 60 63 66 67 67 68
55 53 53 51 52 51 51 49 50 48 45 44 42 44 43 42 41 40 39 39 39 39 39 39 40 40 40 41 42 42 42 41 42 42 42 42 54 57 60 63 65 66 67
56 55 51 52 52 51 51 50 49 48 45 44 44 42 42 42 41 40 39 38 38 38 38 38 38 38 39 40 41 41 41 41 41 42 42 42 43 52 57 60 62 63 65
56 53 53 54 51 51 52 50 50 46 46 46 43 43 42 42 41 39 38 37 37 37 37 37 37 37 37 38 38 38 38 39 41 41 42 42 42 43 49 56 57 60 62
56 55 52 51 50 50 51 50 49 46 46 45 42 43 41 42 41 40 38 37 37 36 36 37 35 37 36 37 39 38 37 37 39 42 40 41 42 41 41 49 51 52 57
55 56 54 51 52 50 50 46 42 41 43 40 42 42 41 42 40 39 37 36 36 35 35 35 35 34 34 34 40 39 36 37 37 37 38 41 40 40 40 40 39 42 52
49 51 52 49 50 49 46 43 42 44 42 41 42 43 42 41 40 40 38 36 35 35 35 35 34 34 33 32 36 36 36 36 37 36 37 37 38 38 38 38 38 39 40
51 50 49 49 49 50 49 49 45 48 42 45 40 39 42 39 39 40 38 37 36 34 34 34 34 32 32 31 34 33 35 36 36 37 36 37 35 36 37 39 38 39 38
46 46 49 49 48 50 48 46 37 36 35 34 34 37 38 40 39 39 39 37 36 36 35 34 33 34 32 31 31 36 33 35 31 33 35 34 34 34 34 35 37 37 38
50 46 47 47 47 49 48 45 45 44 43 43 45 44 40 40 39 38 38 37 36 34 32 33 33 33 33 32 31 33 30 32 33 34 32 32 33 35 33 34 34 35 37
48 44 44 45 45 47 47 47 46 46 47 38 38 39 38 37 38 37 36 35 34 34 33 33 31 32 32 32 31 30 29 28 28 30 31 30 31 31 32 32 33 33 36
42 40 41 42 43 45 46 45 47 46 37 38 36 38 36 36 35 34 35 36 35 34 33 33 31 31 31 31 31 30 30 29 27 27 26 26 26 29 30 31 32 32 33

GFSSE_sfc_temp_003.txt.gz
Temp
69 72 74 77 77 77 77 77 77 76 77 77 77 77 76 76 76 76 76 76 76 78 78 78 77 77 76 76 75 75 73 73 72 72 73 73 76 78 77 75 75 80 77
71 71 73 76 77 77 77 77 76 76 76 77 77 77 78 77 76 76 76 76 77 78 77 76 76 74 74 74 74 73 72 71 70 70 70 71 73 77 77 76 76 79 77
70 70 74 74 76 76 76 76 75 76 76 77 77 77 77 76 76 76 76 76 76 76 75 75 74 73 72 72 72 71 71 70 69 68 69 74 76 76 77 76 76 77 77
70 70 73 73 75 76 75 75 75 76 76 77 77 77 76 76 76 75 76 76 76 76 75 74 73 72 71 71 71 71 70 69 68 67 72 73 74 74 77 77 77 76 75
69 70 71 72 75 75 75 75 75 75 76 77 76 76 76 77 76 74 74 74 75 74 73 72 72 71 71 71 70 69 69 67 65 68 69 71 73 76 77 77 76 75 74
66 68 70 72 74 74 75 75 75 76 77 76 76 75 74 74 74 72 72 73 73 73 72 72 71 71 70 69 68 68 67 65 63 67 68 69 72 76 77 76 74 74 74
65 67 70 71 73 74 74 75 75 75 75 76 75 75 73 73 72 71 72 72 72 71 71 71 70 69 68 68 67 66 64 62 64 65 66 68 73 75 75 75 74 74 74
65 64 67 68 70 72 74 74 74 74 75 74 74 74 73 72 71 71 71 71 71 71 70 70 69 68 67 66 65 64 62 59 62 63 64 67 70 73 74 74 73 73 74
64 63 65 67 68 68 72 70 72 73 73 73 74 72 71 71 70 70 70 70 70 70 69 69 68 67 66 65 64 62 60 58 62 62 64 67 68 72 72 72 72 73 73
61 62 63 65 66 68 69 66 68 69 70 71 70 69 67 67 68 68 67 69 70 69 68 67 67 66 65 64 62 60 57 57 60 60 62 66 68 71 71 71 72 72 72
59 60 62 62 64 65 65 65 65 66 67 67 66 64 63 63 64 65 63 67 69 68 67 66 65 63 61 60 59 57 55 58 59 59 61 62 66 69 70 70 71 71 71
58 60 60 61 61 61 62 64 65 65 67 65 63 61 59 59 60 60 61 64 65 65 65 64 61 57 54 56 56 55 56 55 57 57 59 60 64 67 68 69 70 70 70
61 61 59 60 60 60 61 61 61 62 62 60 59 57 56 56 57 58 58 58 58 56 58 57 54 55 54 55 55 55 54 54 55 56 56 58 63 66 68 69 69 70 70
58 61 60 59 57 58 59 59 60 59 58 57 56 54 54 53 53 54 55 54 53 53 52 52 52 51 52 52 53 53 53 54 55 55 54 56 61 64 67 68 68 69 69
57 59 59 58 58 58 56 57 57 58 57 57 54 53 53 52 52 52 52 51 51 50 51 51 51 51 51 51 51 52 51 52 52 54 55 55 59 63 66 67 68 68 69
59 58 59 57 58 58 57 57 57 58 57 54 54 53 51 52 52 51 49 49 49 50 50 50 51 51 51 51 50 50 50 51 51 52 54 55 57 60 63 66 66 67 68
59 60 57 57 57 56 57 57 57 56 53 53 53 51 51 51 51 50 49 48 48 48 48 48 48 48 50 50 50 50 50 50 51 51 52 53 54 58 60 62 63 66 67
60 57 57 57 55 56 57 57 57 55 54 54 53 52 50 50 50 49 48 48 47 47 48 48 48 48 49 51 50 48 49 49 49 50 51 52 52 52 53 56 58 61 62
59 59 56 55 55 55 56 57 57 54 54 54 52 51 50 49 48 49 48 47 46 46 46 47 46 48 48 48 48 47 48 48 49 50 49 49 49 49 50 51 52 56 58
58 58 58 54 55 54 55 55 54 50 53 52 51 50 49 50 47 48 47 45 45 44 44 44 45 44 47 47 47 46 47 47 47 48 48 49 48 48 49 48 49 50 53
54 53 54 52 53 52 51 49 48 48 50 48 50 49 50 49 47 47 46 45 44 44 44 45 44 44 43 44 46 45 45 46 46 47 48 47 46 46 47 47 47 48 49
55 52 52 51 51 52 52 53 52 52 51 51 49 48 50 48 47 47 46 44 44 43 42 42 43 41 43 42 47 47 44 46 46 46 46 46 45 46 45 45 45 46 46
53 50 51 51 51 52 52 51 43 44 42 43 42 44 46 46 45 46 46 45 43 44 43 42 43 43 43 40 41 49 43 47 44 44 44 44 44 45 45 44 44 44 45
52 50 49 49 49 51 50 49 49 49 46 46 49 48 46 46 45 45 44 44 43 43 42 41 42 43 43 42 40 40 41 45 47 45 43 42 42 43 42 43 43 43 44
46 46 47 47 48 50 49 50 49 49 49 45 47 46 44 43 44 42 43 42 42 42 42 42 40 41 43 43 42 39 39 39 40 46 45 42 42 42 42 42 43 43 43
46 44 44 45 45 47 47 48 48 48 46 44 44 44 42 42 41 41 42 42 42 42 41 41 41 41 41 41 41 41 41 42 40 41 41 39 40 39 40 41 41 42 42

GFSSE_sfc_temp_006.txt.gz
Temp
80 85 75 77 78 77 77 77 77 77 77 77 77 77 76 76 76 76 76 76 77 78 78 78 77 77 76 76 75 74 73 72 72 72 73 74 78 78 77 76 78 82 77
84 84 73 76 77 77 77 77 76 76 76 77 77 77 77 77 76 76 76 76 77 78 77 77 76 75 74 74 73 72 72 71 71 70 71 75 75 77 77 76 76 79 77
82 82 79 75 77 77 76 76 76 76 77 77 77 77 77 77 77 77 76 76 76 76 76 75 74 73 73 72 72 71 71 70 70 69 72 83 81 76 77 76 76 77 77
82 81 81 73 76 76 76 76 75 76 76 77 77 77 77 77 77 77 77 76 76 76 75 74 73 72 72 71 71 70 69 69 68 70 82 81 82 76 77 77 76 76 77
81 81 81 72 75 76 75 75 75 76 76 77 77 77 76 77 77 75 74 74 75 75 74 73 72 71 71 70 70 69 68 67 68 75 78 79 82 79 77 76 76 75 74
80 79 76 73 75 75 75 75 75 76 76 77 76 76 76 75 74 73 73 73 73 73 73 72 72 71 70 69 68 67 66 66 70 76 76 76 80 76 76 75 74 74 74
78 78 78 72 74 74 75 75 75 76 76 76 76 75 75 74 73 72 72 73 72 72 72 72 71 69 69 68 67 66 64 64 75 75 75 77 78 75 75 74 74 74 74
78 77 78 70 71 72 73 74 74 75 75 75 75 75 74 73 72 72 72 72 71 71 71 70 69 68 67 67 65 64 62 64 72 74 74 76 71 73 73 73 73 73 73
78 75 76 77 74 68 70 71 72 73 74 74 74 74 73 72 71 71 71 71 71 71 70 69 68 67 67 65 64 62 60 61 73 72 74 75 69 72 72 72 72 72 72
75 74 76 77 77 77 77 67 68 70 71 71 71 71 69 68 69 69 68 70 71 70 69 68 67 67 65 64 62 60 59 62 70 70 72 70 68 71 71 71 71 71 72
72 73 75 75 76 77 78 74 66 67 68 68 68 65 65 73 72 70 68 68 70 69 68 67 66 64 62 61 59 58 61 69 70 69 71 62 66 69 70 70 70 71 71
72 72 74 74 75 75 75 76 75 75 75 75 75 73 73 73 73 71 66 65 67 66 66 65 63 59 60 68 66 62 68 66 68 68 68 60 65 67 69 69 70 70 70
76 76 72 73 74 74 74 75 75 75 73 75 74 72 72 70 68 69 70 69 69 63 68 66 62 66 64 67 66 66 65 66 68 67 62 58 63 67 68 69 70 69 69
77 76 75 73 73 72 74 73 74 74 72 72 71 69 68 68 67 68 68 68 66 67 64 63 63 62 62 62 63 63 64 66 67 66 61 56 61 66 68 69 69 69 69
74 76 75 73 72 72 71 72 73 72 71 71 70 67 68 67 65 66 67 66 66 64 63 62 62 62 61 61 61 62 62 62 63 65 65 56 60 65 67 68 69 69 69
73 74 76 73 71 72 70 71 71 71 71 70 69 67 66 67 65 65 64 64 63 63 64 63 62 62 61 61 59 60 60 61 61 61 64 62 59 62 66 67 68 68 69
74 74 73 72 71 70 70 71 70 70 70 68 68 67 64 65 65 64 63 62 62 61 60 60 60 61 61 60 59 59 60 59 60 60 61 63 62 58 61 63 66 68 67
78 74 73 70 69 69 70 70 70 70 68 67 67 66 63 62 64 63 62 61 61 60 60 60 60 59 60 60 59 59 59 58 58 58 59 61 60 61 57 58 61 63 64
78 76 72 70 68 67 68 69 69 68 67 67 67 66 63 61 62 63 62 61 59 59 59 60 59 60 58 59 58 58 58 58 57 59 57 57 56 58 59 53 54 56 59
76 75 73 70 68 67 66 66 67 66 65 67 66 65 63 61 60 61 61 59 57 57 57 57 57 58 59 58 57 56 56 57 57 57 56 57 55 55 56 56 57 56 57
72 69 69 68 66 66 63 62 62 62 62 63 64 62 63 61 59 59 60 58 56 55 56 56 56 53 53 56 54 53 54 55 55 55 56 55 53 53 53 55 56 56 56
65 66 65 65 65 64 64 63 64 63 63 63 62 61 61 60 59 58 58 57 55 55 55 54 53 53 55 54 56 56 50 51 53 54 54 54 53 54 52 52 52 53 54
58 58 60 63 62 62 62 62 61 59 58 58 59 58 58 60 58 56 58 56 55 56 54 53 53 53 52 52 54 58 51 54 52 52 51 52 52 53 52 51 51 51 52
54 55 57 58 59 59 61 59 57 56 54 57 57 57 56 57 58 56 56 56 54 54 55 52 54 55 56 51 50 50 51 57 55 48 50 50 50 50 50 50 50 50 51
53 53 54 56 56 58 57 58 57 57 60 60 57 57 55 55 55 55 55 55 53 53 54 53 52 53 55 56 55 49 50 52 52 57 50 46 48 49 50 50 51 50 50
51 51 51 53 52 54 55 56 55 55 56 56 54 54 55 54 53 53 52 53 53 52 52 52 51 52 52 54 56 53 53 53 52 54 54 50 49 46 48 48 49 49 49

GFSSE_sfc_temp_009.txt.gz
Temp
87 87 75 77 78 78 78 77 77 77 77 77 77 77 77 76 76 76 76 77 77 78 78 78 77 76 76 75 74 73 73 73 73 73 74 77 78 78 77 77 78 80 77
89 87 74 76 78 77 77 77 76 76 77 77 77 77 77 77 76 76 76 76 77 78 77 77 76 75 75 74 73 72 72 72 72 71 73 75 76 77 77 76 76 78 77
87 87 78 75 77 77 76 76 76 76 77 77 77 77 77 77 77 77 76 76 77 77 76 76 75 73 73 72 72 71 71 70 70 71 73 83 79 77 77 76 76 77 77
87 87 82 73 76 76 76 76 76 76 77 77 77 77 77 77 77 77 76 75 76 76 75 74 73 72 72 71 71 70 70 69 69 71 81 82 83 76 77 77 77 77 76
86 86 84 73 75 76 76 75 75 76 76 77 77 77 77 77 76 77 74 74 75 75 74 73 72 72 71 70 70 69 68 68 70 75 80 79 82 77 76 76 76 75 74
86 85 75 74 75 76 75 75 76 76 76 77 77 77 77 76 75 74 74 73 74 74 73 72 72 71 70 69 68 68 67 68 70 78 78 78 80 76 76 75 75 74 74
85 84 81 72 74 75 75 75 75 76 76 76 76 76 76 75 75 73 72 73 73 73 72 72 71 70 69 68 67 66 65 67 76 76 76 78 75 75 75 74 74 74 74
84 81 82 71 71 73 74 74 75 75 75 76 76 76 76 75 74 73 72 72 72 72 72 71 70 69 68 67 66 64 63 64 75 75 76 74 71 74 73 73 73 73 73
85 80 81 78 74 68 70 71 73 74 74 74 74 74 73 73 73 72 71 72 71 71 71 70 69 68 67 66 64 62 62 64 74 73 76 74 68 72 72 72 72 72 72
82 80 80 80 79 78 77 67 68 70 71 72 71 70 69 70 70 69 68 70 71 71 70 69 68 67 66 64 62 60 61 64 71 72 71 66 68 71 71 71 71 71 72
79 79 80 79 80 79 79 76 66 67 68 68 69 66 66 73 72 71 68 68 70 70 69 68 67 65 63 61 60 59 61 70 71 70 70 62 66 69 70 70 71 71 71
77 78 79 79 79 79 80 79 77 75 71 73 74 73 74 74 74 73 67 65 67 67 68 67 65 62 60 68 65 62 69 68 69 68 64 61 65 68 69 69 70 70 71
84 81 79 79 79 78 79 79 78 77 73 72 73 75 74 74 73 72 70 69 68 63 67 65 62 64 67 68 67 67 66 68 68 67 61 59 63 67 69 69 70 70 70
84 84 82 79 78 78 78 77 77 77 75 71 74 75 73 72 70 69 70 69 68 67 67 65 64 65 64 65 65 65 65 66 67 66 59 57 61 66 68 69 69 70 70
81 83 83 81 78 78 76 77 76 77 76 74 75 75 73 70 68 69 70 70 69 68 67 64 64 62 62 63 63 64 63 63 64 65 64 57 60 65 68 69 69 70 70
80 81 83 81 78 78 76 75 75 76 76 75 75 73 71 70 69 68 68 68 67 67 66 64 63 62 62 62 61 62 62 62 62 62 64 60 59 62 66 68 68 69 69
83 81 80 81 80 77 76 75 75 75 75 73 73 72 69 70 69 68 67 66 66 65 64 63 63 63 62 62 61 60 60 60 61 61 62 63 61 57 61 64 67 68 68
83 81 81 78 77 76 75 75 75 75 74 73 72 72 69 68 69 67 66 65 65 63 62 61 61 60 61 61 60 60 60 59 59 60 60 61 61 61 58 59 62 64 65
78 79 79 78 76 74 73 75 74 73 73 72 72 71 69 67 67 66 65 64 63 61 60 61 60 60 59 60 60 59 59 58 57 60 58 58 57 59 58 53 55 57 60
70 73 74 75 75 73 72 71 72 72 71 72 71 70 69 67 65 65 64 63 61 59 59 59 58 60 59 59 59 57 57 58 57 57 56 57 56 56 57 56 55 55 58
63 64 67 69 72 71 68 66 66 66 68 68 68 68 69 67 64 63 63 62 59 57 58 58 57 56 57 57 54 54 54 55 55 56 56 55 54 55 55 55 54 55 56
58 59 62 64 67 68 68 67 67 67 67 68 66 66 66 66 63 62 61 60 58 57 57 56 55 53 55 56 54 53 48 50 53 55 54 54 53 53 52 53 53 53 54
55 57 58 60 62 64 65 65 64 63 60 59 62 63 63 63 62 59 60 60 57 57 55 55 54 53 51 52 56 56 49 49 48 52 52 52 52 52 52 51 51 52 53
54 56 57 57 58 60 62 62 60 58 56 60 60 61 61 61 61 60 58 59 56 55 56 53 55 54 53 48 51 54 52 54 49 43 50 50 51 51 50 50 50 50 52
54 53 56 56 56 57 58 58 58 57 59 61 59 58 59 58 58 58 57 57 56 55 55 54 53 53 55 52 51 49 48 51 52 52 43 44 48 49 50 50 50 49 51
54 53 53 54 53 54 54 55 55 54 55 55 57 56 57 58 57 55 55 54 55 55 54 53 52 52 53 54 53 51 51 50 48 50 50 44 43 45 47 48 48 49 49

GFSSE_sfc_temp_015.txt.gz
Temp
69 73 76 77 78 78 78 77 77 77 77 77 77 77 77 77 76 76 77 77 78 78 79 78 78 77 75 74 74 74 74 73 73 74 77 77 77 78 77 76 75 75 77
72 73 74 77 77 77 77 77 76 76 77 77 77 77 77 77 77 76 76 76 77 78 78 77 76 75 74 73 72 73 73 73 73 73 73 75 76 77 77 75 75 76 77
73 74 74 75 77 77 76 76 76 76 77 77 77 77 77 77 77 77 76 76 77 77 77 76 75 74 72 72 72 72 72 72 72 72 72 72 72 76 77 76 76 77 77
73 73 74 74 76 76 76 76 76 76 77 77 77 77 77 77 77 76 76 76 76 76 76 75 74 73 72 71 71 71 71 71 72 71 70 72 75 77 77 77 76 76 76
72 73 74 73 75 76 75 76 76 76 76 77 77 77 77 77 76 75 75 75 75 75 75 74 73 72 71 70 70 70 70 71 70 70 68 68 71 76 76 76 75 75 74
70 73 72 73 75 76 75 76 76 76 76 77 77 77 77 77 76 75 74 75 75 74 74 73 72 71 70 69 69 69 70 70 70 64 64 69 70 77 76 75 74 73 73
70 71 71 73 74 75 75 75 75 75 76 76 76 77 77 76 76 75 74 75 74 74 73 73 71 70 69 68 68 68 68 68 63 62 63 64 67 75 76 74 74 74 73
70 69 71 70 71 73 74 74 75 75 75 75 76 76 76 76 75 74 73 74 75 73 72 72 70 69 68 67 67 66 67 67 64 61 60 62 70 74 74 73 73 73 73
70 68 69 70 70 69 70 71 72 73 74 74 74 74 74 74 74 73 72 73 73 72 72 71 69 68 67 66 66 65 65 65 59 59 64 60 70 73 72 72 72 72 72
68 67 66 67 68 68 69 68 69 70 71 72 71 71 69 69 70 70 68 71 72 72 71 70 68 68 67 65 64 63 63 63 57 57 57 60 69 72 71 71 71 71 72
67 66 66 66 66 68 67 67 65 67 68 68 68 67 65 65 65 65 64 68 71 71 70 69 68 67 65 63 63 62 61 55 54 54 54 64 67 70 71 70 71 71 71
62 65 65 65 65 66 70 68 66 68 67 67 67 65 67 63 62 64 62 65 67 68 69 68 67 64 59 52 52 59 53 54 53 52 53 63 67 69 70 70 70 71 71
62 62 65 65 65 66 68 65 66 68 66 66 67 66 66 65 62 59 58 59 58 60 59 60 58 53 52 51 51 52 53 52 50 51 56 61 64 68 69 70 70 70 70
64 64 65 65 65 64 66 64 65 66 65 64 67 66 66 65 63 59 55 55 55 54 53 51 50 50 50 52 53 52 52 50 49 49 52 59 62 66 69 70 70 70 70
63 64 63 63 65 66 64 62 62 64 64 64 63 66 66 64 62 59 54 55 53 52 51 49 49 49 50 52 52 52 51 51 51 50 48 57 61 66 69 70 70 70 71
59 60 62 62 65 64 64 62 62 61 62 62 62 63 64 65 62 60 55 55 53 53 50 49 48 47 48 49 50 51 51 50 51 50 49 51 60 63 67 69 69 70 70
56 57 59 62 62 62 62 62 61 61 61 60 61 62 62 61 61 60 55 54 54 52 50 48 48 47 46 48 48 49 49 50 50 50 49 49 51 58 62 65 67 69 70
53 55 57 60 60 61 61 60 61 61 60 60 60 62 60 61 62 58 55 52 52 50 49 48 46 45 45 45 45 45 46 47 49 50 49 49 49 50 55 60 63 66 68
52 53 54 56 56 58 60 59 59 60 59 59 59 61 61 60 59 58 56 52 51 49 47 48 44 44 42 43 44 43 44 44 46 50 48 48 48 47 46 56 57 58 63
50 51 52 54 55 56 55 56 55 56 59 60 60 61 60 60 58 57 55 51 49 47 46 45 45 43 43 43 49 46 42 43 43 43 45 48 46 46 46 47 46 49 59
49 49 50 51 52 53 53 51 52 52 53 58 59 60 60 59 58 55 54 51 47 48 46 46 44 44 42 42 41 40 41 42 43 42 42 43 44 46 44 44 44 45 47
46 47 48 49 50 51 52 50 50 48 49 55 56 57 58 58 57 55 53 51 47 45 45 44 44 41 42 42 40 37 36 39 40 42 41 42 42 43 44 45 44 45 44
43 42 46 47 48 48 49 50 50 48 47 48 52 53 54 56 56 54 53 51 49 48 46 45 43 43 41 40 40 41 34 36 35 38 39 40 40 39 40 42 44 45 44
42 42 44 46 47 47 47 46 43 42 42 43 44 45 47 49 51 52 52 51 49 47 46 43 45 43 40 39 39 45 40 39 36 35 37 38 39 40 39 38 41 43 43
42 41 41 45 45 45 45 44 43 41 41 41 42 42 43 45 46 46 47 50 48 47 46 45 45 41 41 40 41 37 37 37 37 35 32 34 36 37 39 39 39 39 42
41 40 40 42 42 44 44 43 42 41 41 40 40 40 41 41 41 43 44 42 43 46 44 44 44 43 45 41 40 39 38 39 36 36 33 31 32 34 36 38 39 40 39

GFSSE_sfc_temp_021.txt.gz
Temp
66 68 75 77 78 78 78 77 77 76 77 77 77 77 76 76 76 76 77 77 77 78 78 78 77 75 74 74 74 74 74 74 74 75 76 76 77 77 76 75 74 74 76
68 70 74 76 77 77 77 76 76 76 76 77 77 77 77 76 76 76 76 76 77 78 78 78 76 74 73 73 73 73 74 73 73 73 73 74 75 77 76 75 75 75 76
69 72 73 75 77 77 76 76 75 76 77 77 77 77 76 76 76 76 75 76 77 77 76 76 75 73 72 72 72 73 73 73 72 72 72 69 70 76 76 75 75 76 76
69 72 72 73 76 76 76 75 75 76 76 77 77 76 76 76 76 76 75 76 76 77 76 75 73 72 72 71 72 72 73 72 71 70 68 69 72 76 76 76 76 75 75
68 70 72 72 75 76 75 75 75 75 76 76 77 76 76 76 76 76 75 75 75 76 74 74 73 72 71 71 71 72 72 72 69 68 66 67 69 75 76 75 74 74 73
66 69 71 73 75 75 75 75 75 75 76 76 76 77 77 76 75 75 75 75 75 75 74 73 72 71 70 70 70 71 71 70 66 62 63 67 68 76 76 74 73 73 72
65 67 69 72 74 75 75 75 75 75 76 76 76 76 76 76 74 74 74 74 74 75 73 72 71 70 69 69 69 69 69 67 60 60 61 63 67 75 75 74 74 73 73
65 66 68 69 71 72 74 74 74 75 75 75 75 76 76 75 74 74 74 76 74 74 74 72 70 69 68 68 68 68 67 65 60 58 59 61 71 74 74 74 74 74 74
65 66 66 68 69 68 70 71 72 73 74 74 74 74 74 73 73 72 72 73 75 75 73 72 69 68 67 67 67 66 65 63 56 57 61 59 70 73 72 72 72 74 72
63 65 65 66 69 69 69 67 68 70 71 71 71 70 69 69 70 70 68 70 73 73 73 71 69 68 67 66 65 64 63 61 55 55 56 59 70 72 71 71 71 71 71
62 61 64 65 66 68 69 67 65 67 68 68 68 66 66 66 67 65 65 68 71 71 71 70 68 67 65 63 64 62 59 52 52 52 54 64 68 70 71 71 70 70 71
58 61 61 62 64 66 68 67 68 69 68 69 69 69 67 65 65 65 62 64 67 68 69 69 68 65 57 49 49 56 50 51 50 50 51 63 67 69 70 70 70 70 70
53 55 57 60 62 63 67 68 67 68 68 66 67 67 66 63 63 62 62 62 60 61 59 61 58 51 50 48 49 49 49 49 47 48 54 61 64 68 70 70 70 70 70
50 52 53 54 60 62 63 65 67 67 67 66 65 64 63 63 62 61 60 60 60 59 56 53 51 50 48 48 49 49 49 47 46 47 49 59 62 66 70 70 70 70 70
49 50 51 51 54 60 61 61 62 66 68 66 65 64 62 60 61 60 60 59 59 57 56 51 50 48 47 47 48 48 48 48 47 47 46 55 60 64 68 71 70 70 70
49 49 50 51 53 57 60 60 60 65 67 65 63 63 61 61 60 60 58 58 57 57 54 51 49 47 46 45 46 47 47 47 47 47 47 48 59 61 66 70 70 71 71
47 48 49 53 53 55 58 59 59 59 61 61 60 60 61 62 62 60 58 57 57 55 53 52 48 46 45 45 45 45 45 46 46 47 47 47 49 55 61 66 67 70 71
45 46 49 52 51 54 56 57 58 59 59 59 61 61 61 61 61 59 57 56 57 55 53 51 49 45 44 43 42 43 43 44 45 46 46 46 46 48 52 59 62 65 69
43 45 47 49 49 51 54 55 55 56 59 59 60 60 60 60 59 58 57 56 55 53 52 51 48 48 43 42 42 42 41 41 43 46 44 45 45 46 46 52 57 57 60
43 45 46 47 48 49 52 54 53 54 57 57 56 57 58 58 57 56 55 54 53 52 50 49 48 46 45 43 46 44 40 40 40 40 41 45 43 44 44 45 45 47 55
43 44 44 44 44 46 46 46 48 45 51 50 51 51 54 55 56 55 53 53 51 51 49 48 46 47 45 44 42 40 40 40 40 39 39 40 41 43 42 43 43 43 46
40 41 43 43 43 44 45 44 44 44 45 45 46 46 46 47 47 52 51 51 50 49 49 47 47 45 45 44 44 39 38 40 39 40 39 40 39 40 41 42 42 43 43
38 38 41 41 42 42 44 44 43 43 42 42 41 42 42 43 43 44 45 46 46 47 47 47 46 46 44 43 44 45 40 35 34 37 37 37 38 38 38 39 41 42 42
36 38 40 41 41 42 42 42 40 38 36 37 38 40 41 41 41 41 41 42 42 43 45 44 47 45 44 43 42 44 41 41 38 38 37 37 36 39 37 37 39 40 41
36 35 36 39 39 39 40 40 39 38 37 38 37 38 38 39 39 39 39 39 39 39 38 39 41 43 44 42 42 42 40 39 38 38 39 35 36 36 37 38 39 39 40
35 35 35 37 36 37 38 37 36 35 36 36 35 35 36 36 37 37 37 36 37 37 37 37 36 37 38 41 42 41 40 40 39 38 36 36 36 37 35 36 36 40 40

GFSSE_sfc_temp_024.txt.gz
Temp
65 67 75 77 78 78 78 77 77 76 77 77 77 77 77 77 77 77 77 77 77 78 78 77 76 75 75 75 74 74 74 74 74 75 75 76 77 77 76 75 74 74 77
67 69 73 76 77 77 77 76 76 76 77 77 77 77 77 77 76 76 76 76 77 78 78 77 75 74 74 73 74 74 74 74 73 73 73 73 75 76 76 75 75 75 77
67 70 72 75 77 77 76 76 75 76 77 77 77 77 77 76 76 76 76 76 77 77 77 76 74 73 73 73 73 73 74 73 72 73 72 68 70 76 76 75 75 76 76
68 70 72 73 76 76 76 75 75 76 76 77 77 76 76 76 76 76 76 76 76 77 76 75 73 73 72 72 72 73 73 72 71 70 67 68 72 76 76 76 75 75 75
67 69 71 72 75 76 76 75 75 75 76 77 76 76 76 76 76 76 75 75 75 76 75 74 73 72 71 71 72 72 73 71 68 67 66 67 68 75 76 75 74 73 73
65 67 70 73 75 75 75 75 75 76 76 76 76 76 76 76 75 75 75 75 75 75 74 73 72 71 70 70 71 71 71 69 66 62 63 67 68 76 76 74 73 73 72
64 66 68 72 74 75 75 75 75 75 76 76 76 76 76 75 74 74 74 74 75 74 74 72 71 70 69 69 70 70 69 66 59 59 61 63 67 76 75 75 74 74 74
64 66 67 68 70 73 74 74 74 75 75 75 75 75 76 75 74 74 74 74 75 76 76 73 70 69 68 68 69 68 66 64 60 58 58 60 70 74 74 74 74 75 75
63 64 65 67 68 68 70 71 72 73 73 74 74 74 74 73 73 73 73 74 74 75 74 73 70 68 68 67 67 66 64 63 56 57 60 58 69 73 72 72 72 73 73
61 63 63 64 69 70 69 66 68 70 71 71 71 70 68 69 70 70 68 71 73 73 73 72 69 68 67 66 65 64 62 61 54 55 56 59 70 72 71 71 71 71 71
60 60 61 63 67 69 71 68 65 66 68 68 68 67 67 66 68 67 65 68 71 71 71 70 68 67 63 60 62 62 59 51 51 52 53 63 68 71 71 71 70 71 71
51 54 55 58 63 66 68 69 68 69 67 67 68 68 68 67 65 65 63 65 67 67 69 69 68 62 55 48 47 53 48 49 49 50 50 63 67 70 71 70 70 70 71
48 51 52 53 55 64 67 68 67 68 67 67 68 69 68 65 63 63 62 63 63 62 61 61 55 51 50 47 47 47 47 47 45 47 51 61 64 67 70 71 71 70 70
47 49 50 50 51 57 66 68 66 66 66 66 66 65 65 63 62 61 61 61 61 60 59 57 54 50 49 48 47 47 47 46 46 46 48 56 61 65 68 71 71 70 70
46 47 48 49 50 52 59 64 64 65 66 66 65 65 64 62 62 61 61 60 59 58 58 56 52 50 48 48 47 47 47 46 46 46 45 53 59 63 66 70 71 71 71
46 46 48 49 51 51 56 61 62 65 65 65 64 64 63 62 60 59 59 57 58 58 57 55 53 49 47 46 47 46 46 46 46 46 46 46 56 59 63 67 71 71 71
44 45 47 51 51 53 57 59 60 62 62 62 62 62 61 62 60 60 59 58 58 56 55 53 51 50 49 46 45 45 44 45 45 45 45 45 47 54 58 63 65 68 70
42 44 46 49 49 54 56 58 58 60 60 60 61 61 61 61 61 59 58 57 57 55 54 52 50 49 49 48 46 43 42 43 43 44 44 45 45 47 51 57 61 63 65
41 43 44 46 46 51 55 56 57 56 55 53 53 55 57 58 58 58 56 55 55 54 52 51 49 49 48 48 47 46 42 41 42 44 43 44 44 45 44 50 55 56 59
40 42 43 45 45 47 52 54 53 52 50 50 49 50 50 51 54 55 54 53 53 52 50 49 48 46 46 46 48 47 42 41 41 40 41 43 42 43 43 43 43 45 54
40 41 41 42 42 45 44 43 48 43 47 45 45 45 47 47 49 49 51 51 51 50 49 48 46 46 46 45 46 46 46 43 41 40 39 39 40 41 41 42 42 42 44
37 37 40 41 41 42 42 41 41 41 42 44 43 42 43 43 43 45 45 45 46 47 45 44 44 43 44 45 45 42 40 41 41 40 38 39 39 39 40 41 40 41 41
35 34 38 39 40 41 42 42 41 40 39 40 39 40 40 41 41 41 41 41 41 43 42 42 45 43 43 43 45 45 41 39 37 39 39 38 38 37 39 39 40 41 41
34 35 36 38 39 40 41 41 39 37 36 34 35 36 38 38 38 39 39 39 39 39 38 39 41 40 40 38 42 44 42 41 38 34 38 40 38 38 37 37 38 39 40
34 33 34 36 37 37 37 39 38 36 35 33 34 35 35 36 36 36 36 36 36 37 37 37 37 37 38 37 37 40 40 40 39 37 36 35 38 40 38 37 38 37 39
33 33 33 35 34 35 36 36 35 34 33 34 32 32 32 33 34 34 34 33 34 34 34 34 34 35 34 35 35 35 36 38 38 38 37 38 37 39 37 38 36 37 37

GFSSE_sfc_temp_027.txt.gz
Temp
72 74 75 77 78 78 78 77 77 77 77 77 77 77 77 77 77 77 77 77 78 78 77 77 76 75 75 75 75 75 75 74 75 75 76 77 77 77 76 75 76 79 77
74 74 73 77 78 77 77 76 76 76 77 77 77 77 77 77 77 77 77 77 78 78 78 76 75 74 74 74 74 74 75 74 74 73 73 74 75 77 76 75 76 77 77
72 74 76 75 77 77 76 76 76 76 77 77 77 77 77 77 77 77 77 76 77 77 77 76 74 74 73 73 73 74 74 73 73 72 72 78 78 76 76 75 75 76 76
72 74 75 73 76 76 76 75 75 76 77 77 77 77 77 77 76 76 76 76 76 77 76 75 74 73 72 72 73 73 73 72 71 70 76 77 78 76 76 76 75 75 75
72 73 74 72 75 76 75 75 75 76 76 77 77 77 76 76 76 76 75 76 76 76 76 74 73 72 72 72 72 73 72 70 68 72 75 76 77 77 76 75 74 74 73
71 72 72 73 75 75 76 76 75 76 76 76 76 76 76 76 76 75 75 75 75 75 75 73 72 71 71 71 71 71 71 69 68 73 74 74 77 77 76 74 74 73 73
69 71 72 72 74 75 75 76 75 75 76 76 76 76 76 75 75 74 74 75 75 76 75 73 71 70 70 70 70 70 68 66 70 71 71 73 76 75 75 75 75 74 74
69 69 71 68 70 72 74 75 75 75 75 75 75 75 75 75 74 74 74 74 75 76 75 73 70 69 69 69 69 68 66 64 67 69 69 71 71 74 74 74 74 74 74
68 69 69 71 69 67 70 71 73 74 74 74 74 74 73 73 73 73 73 74 75 74 74 73 70 68 68 68 67 65 64 62 68 67 68 70 69 73 73 72 72 72 73
64 64 66 69 70 71 73 66 68 70 71 71 71 70 69 69 70 70 69 71 73 73 73 71 68 68 66 66 65 63 61 61 65 65 66 68 69 72 72 72 71 71 71
59 59 60 61 68 71 71 69 65 66 68 68 69 67 68 74 73 69 66 69 71 71 71 69 68 65 61 60 61 60 59 63 64 64 65 64 68 71 72 71 71 71 71
55 56 58 57 59 63 69 70 69 70 70 72 73 73 70 71 69 68 64 65 67 68 69 69 66 61 59 60 60 58 61 60 62 61 63 63 66 69 71 71 71 71 71
52 55 56 56 56 58 65 69 69 69 69 71 72 71 71 68 66 66 64 65 65 62 64 63 60 61 59 59 59 59 59 59 60 60 59 60 64 67 69 71 71 71 70
51 52 53 54 55 57 62 66 68 68 68 67 67 67 68 66 65 65 63 63 63 63 62 60 59 59 58 57 57 58 58 59 60 60 59 56 60 65 68 70 71 71 70
48 50 51 52 54 56 59 65 66 66 67 67 68 66 65 64 64 63 64 64 63 62 61 60 57 56 59 57 57 56 57 57 57 58 59 54 58 62 65 68 71 71 71
47 48 50 52 54 56 59 64 64 65 66 65 64 64 64 64 63 62 61 61 61 64 64 59 57 56 55 57 57 56 56 56 56 56 58 58 56 59 61 65 69 71 71
46 47 49 52 54 59 62 62 62 62 62 61 61 61 61 62 62 61 61 60 59 59 58 57 57 56 54 54 55 55 55 55 56 56 56 57 57 55 57 61 63 66 68
45 46 49 50 53 56 58 57 56 54 54 53 54 55 57 58 59 58 58 57 57 56 55 54 52 53 53 54 55 54 54 54 54 54 54 55 56 57 56 56 59 61 63
44 45 47 49 50 54 54 53 52 52 52 51 51 51 53 54 56 56 54 54 55 53 52 52 50 50 50 49 50 52 53 54 54 54 54 53 54 55 56 54 54 54 57
43 44 46 48 48 52 53 52 51 49 48 48 48 49 50 50 52 52 52 52 53 52 51 51 50 48 47 47 49 50 51 51 54 53 52 52 52 52 53 52 53 55 53
42 43 43 45 46 50 49 50 47 45 46 45 45 45 47 47 48 49 50 50 52 50 49 50 51 51 51 51 51 53 54 53 52 53 52 51 51 51 51 52 52 53 54
40 40 42 43 44 47 47 46 46 45 44 44 44 44 45 45 45 46 46 46 47 47 46 47 48 49 49 49 49 48 47 52 52 52 51 50 50 50 51 51 51 51 51
38 38 40 41 42 44 46 46 45 44 44 43 42 42 41 43 43 43 43 43 43 44 43 44 45 45 45 47 47 47 46 44 45 50 51 50 50 50 50 49 50 50 50
37 38 39 39 40 42 43 43 42 41 39 38 39 40 40 40 40 40 41 41 41 42 41 42 43 43 45 41 46 47 47 45 42 42 48 50 49 50 50 51 50 50 50
37 37 37 39 39 40 41 42 40 38 38 38 38 39 39 39 38 38 39 39 39 39 39 39 39 40 41 41 41 42 43 45 44 41 39 43 47 50 50 50 50 50 49
37 37 37 38 37 38 39 39 40 38 38 37 37 36 36 36 37 36 36 36 37 37 37 37 37 37 37 39 39 40 39 39 40 39 39 40 40 44 46 48 49 49 50

GFSSE_sfc_temp_030.txt.gz
Temp
81 85 75 78 78 78 78 77 77 76 77 77 77 77 77 77 77 77 77 77 77 77 77 76 76 75 75 75 75 75 75 75 75 75 76 76 77 77 76 76 76 80 77
84 84 74 77 78 78 77 77 76 76 77 77 77 77 77 77 77 77 77 77 77 77 76 76 75 75 74 74 74 74 75 74 74 73 74 75 76 76 76 75 75 78 77
83 83 81 76 77 77 76 76 76 76 77 77 77 77 77 77 77 77 77 77 77 77 76 75 74 74 73 73 74 74 74 73 73 72 74 84 82 76 76 75 75 76 76
83 83 83 74 76 76 76 76 76 76 77 77 77 77 77 77 77 77 76 76 76 77 76 75 74 73 73 73 73 74 73 72 71 72 83 84 83 76 76 76 75 75 76
82 83 83 73 76 76 75 75 76 76 77 77 77 77 77 77 76 76 76 76 76 76 76 74 73 72 72 72 72 72 72 70 70 77 82 82 83 77 76 75 75 74 73
81 82 76 73 75 76 75 75 76 76 76 77 77 77 77 76 76 75 75 75 75 75 74 74 72 71 71 71 72 71 70 69 72 80 81 79 80 76 76 75 74 73 73
80 80 80 72 74 75 76 77 76 76 76 76 76 76 76 76 75 75 75 75 76 75 74 72 71 70 70 70 70 70 68 67 78 79 78 79 78 75 75 74 75 74 74
79 77 79 71 70 73 74 75 76 75 75 76 76 76 75 75 75 75 75 75 75 75 74 72 70 69 69 69 68 67 65 65 75 77 77 78 71 74 74 73 73 74 74
76 76 77 79 74 67 70 71 73 75 74 75 75 75 74 73 73 74 73 74 74 74 73 71 69 68 68 67 66 65 63 63 77 76 76 78 69 73 73 72 72 72 72
72 72 72 74 73 73 78 66 67 71 72 72 72 71 70 69 70 70 69 72 73 73 72 69 68 67 66 65 64 63 62 65 74 74 76 72 68 72 73 72 72 71 71
71 71 71 71 71 69 73 72 66 65 67 68 70 67 68 79 78 74 69 69 71 71 70 69 67 65 63 61 61 61 63 73 74 73 74 64 67 71 72 72 71 71 71
67 67 68 69 70 71 71 72 73 72 78 79 80 80 80 80 79 75 67 65 68 68 69 68 66 62 65 72 72 66 72 70 72 71 72 62 66 69 71 72 71 71 71
65 67 66 66 67 69 73 75 74 72 72 78 79 80 78 70 70 68 68 68 69 64 69 68 66 73 69 70 70 70 69 70 72 71 67 60 63 67 69 71 72 71 70
63 64 65 65 66 68 71 74 72 71 72 72 77 75 77 74 68 67 67 66 65 66 65 65 64 65 68 67 67 68 68 69 70 70 68 56 60 65 67 69 71 71 71
61 62 63 64 65 68 68 72 71 70 70 69 71 69 68 70 69 71 68 66 66 67 69 64 61 60 63 66 66 66 66 66 67 69 69 57 58 62 65 67 69 71 72
58 60 62 61 61 68 70 69 67 67 65 65 63 64 64 66 65 65 65 66 65 64 63 62 59 58 57 57 65 64 64 65 66 65 68 67 58 59 61 64 66 68 69
58 59 55 56 61 65 64 60 58 59 59 58 59 61 61 62 63 62 60 59 59 60 58 58 57 58 58 62 60 61 64 64 65 65 65 66 66 60 58 61 63 64 65
57 56 53 55 56 56 55 55 55 55 54 54 55 57 59 60 61 59 57 56 57 56 55 54 54 54 55 59 62 61 58 63 63 64 65 65 65 65 63 59 58 60 62
56 55 52 53 54 53 53 52 52 53 53 54 56 56 55 57 57 55 55 55 55 54 54 54 55 53 53 53 52 55 55 56 62 64 63 62 62 62 63 60 56 55 57
55 56 52 52 54 53 53 52 53 53 55 56 54 54 55 55 56 57 55 56 58 58 57 58 57 57 58 58 57 57 62 62 63 63 62 62 61 60 61 60 60 61 56
54 56 53 53 53 55 54 53 53 54 54 53 53 54 56 56 57 58 57 58 58 56 56 57 59 58 57 58 60 62 63 61 61 62 61 61 59 60 60 60 59 59 60
52 53 54 53 53 56 58 56 56 53 53 53 52 52 53 52 53 54 54 53 55 55 54 54 54 56 55 56 53 56 55 60 59 60 60 58 58 59 59 59 59 59 58
50 50 51 53 54 55 55 55 53 54 53 51 51 50 50 52 51 50 51 51 51 52 50 51 52 52 51 53 53 53 51 49 51 58 56 58 56 57 58 58 58 58 58
49 50 51 51 52 53 55 56 55 53 48 48 49 48 48 49 48 49 49 49 49 49 48 48 50 50 50 47 52 52 53 50 47 46 54 54 54 53 54 56 57 57 57
48 48 49 50 50 51 53 53 52 49 48 49 49 47 47 47 46 46 47 47 47 47 46 46 47 47 48 47 46 47 49 51 51 46 43 47 50 52 53 53 54 55 56
47 47 48 49 48 50 51 52 51 48 48 47 47 46 46 46 45 44 44 44 44 44 44 44 44 43 44 45 46 46 44 44 44 43 42 43 44 48 49 51 52 54 55

GFSSE_sfc_temp_033.txt.gz
Temp
85 84 76 78 78 78 78 77 77 77 77 77 77 77 77 77 77 76 77 77 77 77 76 76 76 76 75 75 75 75 75 75 75 75 76 76 77 77 76 75 76 78 77
88 86 75 77 78 78 77 77 76 76 77 77 78 77 77 77 77 77 77 77 77 77 76 75 75 75 74 74 74 75 74 74 74 74 75 75 75 76 76 75 75 77 77
87 86 81 76 77 77 76 76 76 77 77 77 77 77 77 77 77 77 77 77 77 76 75 75 74 74 73 74 74 74 74 73 73 73 75 83 78 76 76 75 75 76 76
87 87 85 74 76 76 76 76 76 77 77 77 77 77 77 77 77 77 76 76 76 76 75 74 73 73 73 73 73 73 73 72 72 73 82 84 79 76 76 76 75 76 76
86 87 83 74 76 76 76 76 76 76 77 77 77 77 77 77 76 76 76 76 76 76 75 74 72 72 72 72 72 72 72 71 72 76 82 80 79 77 76 75 76 74 73
85 86 75 74 76 76 75 76 76 76 77 77 77 77 77 76 76 76 75 75 75 75 74 73 71 71 71 71 71 71 70 70 70 81 81 78 76 76 76 75 74 73 73
84 85 82 73 75 76 76 75 75 76 76 76 76 76 76 76 75 75 75 75 75 74 73 72 71 70 70 70 70 69 68 68 78 79 79 79 74 74 75 74 74 74 74
82 81 82 71 70 73 75 76 76 76 75 75 75 76 75 75 75 75 75 75 75 74 72 71 70 69 69 68 68 67 66 66 77 78 78 76 70 74 74 73 73 73 73
80 80 81 81 76 67 69 72 73 75 75 75 75 75 74 74 73 74 74 74 74 73 72 70 69 68 68 67 66 65 64 65 77 76 77 73 69 73 74 73 72 72 72
77 77 77 78 76 77 80 66 67 68 72 73 73 71 70 70 71 71 70 72 73 72 70 69 68 67 66 65 64 64 64 65 75 75 75 67 68 72 73 72 72 72 72
75 75 75 75 76 76 76 74 66 65 66 68 70 67 68 78 77 73 68 69 71 71 70 69 67 66 64 64 63 63 64 73 74 73 72 64 68 71 72 72 72 72 72
72 73 73 73 73 74 75 76 76 79 79 80 80 80 78 79 79 75 69 66 68 68 69 68 66 65 66 73 71 67 71 70 72 71 67 63 66 69 71 71 72 71 71
71 72 72 71 72 73 76 75 77 76 76 78 80 79 78 76 75 73 69 68 70 65 71 68 66 69 70 71 70 70 70 70 70 70 63 61 64 68 69 70 71 71 71
68 69 70 70 71 72 74 76 74 73 74 77 77 76 76 73 72 69 68 68 71 68 67 66 65 64 67 69 68 68 68 68 69 69 64 58 61 65 68 69 70 72 71
65 66 67 67 67 71 72 74 71 69 71 71 70 70 71 72 72 71 68 69 66 67 68 67 66 64 62 64 67 67 67 67 67 68 67 58 60 63 66 68 68 70 71
63 63 63 62 65 72 73 63 62 63 62 62 61 64 66 66 64 64 63 62 62 63 64 62 60 61 60 60 64 65 66 67 67 67 67 66 60 61 62 65 66 67 68
63 60 57 59 61 61 59 57 56 57 57 56 57 60 61 62 63 61 59 57 57 58 58 57 57 58 61 62 61 64 64 66 66 66 66 66 66 61 61 62 62 63 64
62 56 55 58 57 56 55 54 56 57 58 57 58 60 60 61 60 60 58 56 56 55 55 54 54 53 54 53 55 58 58 58 64 65 65 64 64 63 63 61 60 60 62
61 56 54 55 54 53 53 54 54 55 57 57 58 59 59 59 57 57 56 55 55 55 55 56 58 57 57 60 60 61 60 58 62 65 63 62 61 61 60 60 59 58 60
60 56 55 55 54 53 54 54 55 55 55 59 59 60 60 60 61 61 61 60 61 60 60 61 60 61 59 58 61 63 64 64 63 61 62 62 60 60 60 59 58 58 59
59 55 55 55 55 56 55 56 55 54 56 55 55 57 58 58 59 59 59 59 59 57 57 58 60 58 56 57 59 59 63 62 61 61 60 59 58 59 59 59 58 57 58
58 56 55 55 57 59 60 60 58 57 56 55 55 55 55 54 55 56 55 55 56 54 53 54 54 56 55 55 51 55 54 57 57 59 59 58 56 55 56 56 56 56 56
56 56 56 57 59 59 59 58 56 55 55 53 52 51 52 53 53 52 53 52 52 53 50 50 51 51 50 52 52 51 47 46 49 56 55 55 53 52 53 54 54 54 54
54 55 56 56 57 58 59 58 57 55 50 51 50 50 50 51 51 51 51 51 50 50 49 49 51 49 49 46 51 52 51 50 44 43 51 52 51 51 50 51 51 53 54
52 53 54 54 54 57 58 58 55 51 51 51 50 49 48 48 48 48 48 48 47 48 47 47 46 47 48 46 45 46 47 49 49 44 40 42 47 49 50 49 49 51 53
50 51 52 52 52 54 55 55 53 50 50 49 49 48 47 47 47 46 46 46 46 45 45 45 45 43 44 44 45 44 43 42 41 41 39 39 40 44 46 48 49 50 50

GFSSE_sfc_temp_036.txt.gz
Temp
76 75 76 78 78 78 78 77 77 77 77 77 77 77 77 77 77 77 77 77 77 77 76 76 76 76 75 75 75 75 75 75 75 76 76 76 77 77 76 75 75 76 77
77 78 75 77 78 77 77 76 76 76 77 78 78 77 77 77 77 77 77 76 76 76 76 76 75 75 75 74 74 74 74 74 74 74 74 75 75 76 76 75 75 76 77
79 78 77 76 76 76 76 76 76 76 77 77 77 77 77 77 77 77 76 76 76 76 75 75 74 74 74 74 74 74 74 73 73 73 73 74 73 76 76 75 76 76 76
81 79 78 74 76 76 76 76 76 76 77 77 77 77 77 77 77 77 76 76 76 76 75 74 73 73 73 73 73 73 73 73 72 72 74 76 76 76 77 76 75 75 75
80 81 76 74 76 75 75 75 76 76 76 77 77 77 77 77 76 76 76 75 75 75 74 73 72 72 72 72 72 71 72 72 71 72 72 71 72 76 76 75 74 73 73
79 77 73 75 76 76 76 75 76 76 76 77 77 77 77 76 76 75 75 75 74 74 73 72 72 71 71 71 71 71 71 71 72 72 72 72 71 75 76 75 74 73 73
76 74 74 74 75 76 76 75 75 76 75 76 76 76 76 76 75 75 75 75 74 73 72 72 71 71 70 70 69 69 69 68 68 69 68 67 69 74 75 74 73 73 73
75 76 74 71 71 73 75 75 75 75 75 75 75 75 75 75 75 75 75 74 74 72 72 71 70 70 69 69 68 68 67 66 70 68 66 65 70 74 74 73 73 73 72
72 73 74 73 71 66 68 70 73 74 74 75 75 74 74 73 73 73 73 74 73 72 71 70 69 69 68 68 68 67 66 66 65 65 67 62 69 73 74 73 73 72 72
68 68 69 71 73 74 72 65 66 68 70 73 72 71 69 70 70 70 69 72 73 72 71 70 69 68 68 67 67 66 65 66 63 62 60 61 69 72 73 73 72 72 72
67 66 66 66 68 71 73 68 65 65 66 69 69 67 65 69 69 68 67 69 71 70 70 69 68 67 66 65 66 65 65 60 61 59 57 65 69 71 72 72 72 72 71
61 62 63 63 64 66 72 73 73 73 70 71 71 69 70 70 70 70 64 66 68 68 69 68 67 66 64 61 60 63 58 59 59 57 55 64 68 70 71 71 72 72 71
58 62 62 62 63 64 65 69 71 68 68 71 73 70 70 68 66 65 63 64 65 64 63 64 63 64 62 60 59 59 59 57 55 56 58 63 66 69 70 70 71 72 71
58 59 61 61 62 63 63 66 70 67 67 66 67 67 67 66 65 65 64 65 65 63 63 62 58 58 60 62 60 60 59 57 56 55 54 60 63 67 69 69 70 71 71
56 57 57 57 58 63 63 65 65 63 63 63 63 64 66 65 64 64 64 64 63 63 62 62 60 58 56 59 59 59 59 58 58 57 54 58 61 64 67 68 68 69 69
57 54 55 58 59 59 60 60 59 60 60 58 60 62 63 63 61 61 59 59 59 59 59 58 57 57 56 57 57 60 58 58 58 58 57 54 61 63 64 65 66 66 67
54 54 54 56 57 57 56 55 56 57 57 57 58 60 59 61 60 58 56 55 55 56 56 55 55 55 55 56 57 59 58 57 57 58 56 56 55 59 62 63 63 64 65
53 51 55 56 55 54 54 55 55 56 56 56 55 55 55 56 55 55 55 54 54 54 54 53 53 53 54 54 54 53 54 56 58 59 56 55 53 54 56 61 62 62 63
52 53 54 54 53 53 53 54 55 56 56 56 56 57 57 54 54 53 52 52 54 54 53 54 53 52 49 49 51 51 51 50 53 56 54 53 52 52 51 57 58 58 61
51 54 53 53 52 53 54 54 54 54 55 55 53 52 53 53 54 53 52 52 52 50 50 50 50 49 48 46 53 53 51 51 51 50 50 53 52 51 51 51 49 51 58
51 53 53 52 52 53 53 52 52 50 50 48 49 49 50 51 52 50 49 50 49 48 47 49 49 47 46 47 46 47 49 50 49 49 48 48 48 50 49 48 49 48 50
50 52 53 53 54 55 56 55 53 49 47 47 46 47 48 48 48 49 46 46 45 44 44 44 44 44 43 45 41 42 42 45 46 49 46 48 44 45 47 48 49 48 47
50 52 53 54 55 55 54 51 49 48 45 44 42 42 45 46 45 44 44 43 42 42 41 40 40 40 38 40 42 40 37 35 38 44 43 43 43 42 43 44 48 48 47
46 53 54 54 54 54 51 48 46 44 41 41 41 41 42 42 42 43 42 42 41 40 39 39 41 39 38 36 38 44 40 39 34 32 39 39 42 43 42 41 42 44 46
45 46 49 47 49 50 50 48 46 43 41 40 40 40 39 39 40 40 40 39 38 38 37 37 36 36 36 35 35 35 36 36 35 32 29 32 36 38 39 41 40 41 44
43 44 44 45 46 48 47 46 44 41 41 40 39 37 37 37 37 38 39 37 37 37 36 35 35 34 34 34 34 34 33 32 31 30 28 29 29 33 39 38 40 40 42

GFSSE_sfc_temp_042.txt.gz
Temp
68 71 75 77 78 78 77 77 77 76 77 77 77 77 77 77 76 76 76 76 76 76 76 76 76 76 75 75 75 75 75 75 75 75 75 76 77 77 76 75 75 74 76
71 73 74 76 77 77 77 76 76 76 77 77 77 77 77 77 77 76 76 76 76 76 76 76 75 75 74 74 74 74 74 74 73 73 73 74 75 76 75 74 75 75 76
72 73 74 75 76 76 76 76 76 76 77 77 77 77 77 77 76 76 75 75 75 75 75 75 75 74 73 73 73 74 74 73 73 72 72 69 72 76 76 75 74 75 75
73 74 73 73 75 75 75 75 76 76 77 77 77 77 77 76 76 76 75 75 74 74 75 74 74 73 73 73 73 74 73 72 71 70 69 70 74 76 75 74 74 74 74
72 73 73 73 75 75 75 75 75 76 76 77 77 77 77 76 75 75 74 74 74 74 74 74 73 73 72 72 73 73 72 71 69 68 66 68 69 76 76 74 73 72 72
71 73 71 73 75 75 75 75 75 76 76 76 76 77 76 76 75 74 74 73 73 73 74 73 72 72 72 72 72 72 71 69 66 62 63 66 68 74 74 74 73 72 72
70 71 72 73 74 74 75 75 75 75 76 76 76 76 76 75 74 74 73 73 73 73 73 73 72 71 71 71 72 71 69 67 62 61 61 62 67 74 74 73 73 72 72
69 71 71 70 71 73 74 74 74 74 75 74 75 75 75 75 74 74 73 73 73 73 72 72 72 71 71 71 71 69 66 64 61 60 60 61 71 74 73 73 72 72 72
65 67 69 69 68 68 70 71 72 73 74 74 74 74 73 73 73 73 72 73 73 72 72 71 71 71 71 70 70 67 64 63 56 57 62 60 71 73 73 73 72 72 72
62 63 64 69 68 68 68 65 67 70 71 72 71 70 68 69 70 69 69 71 72 72 71 71 70 70 70 69 68 65 63 61 54 55 56 62 71 72 72 72 72 72 71
61 60 61 62 66 70 70 66 64 66 69 68 67 66 64 66 67 67 66 69 70 70 70 70 69 68 65 65 65 63 60 53 53 53 54 66 70 72 72 72 72 72 71
53 56 57 59 61 63 69 69 69 69 67 68 67 66 67 66 66 68 64 65 66 67 68 69 67 64 60 56 55 58 53 53 52 52 54 66 69 71 71 71 71 72 71
52 54 55 55 56 58 61 65 68 69 66 65 67 66 67 66 65 64 63 63 61 60 59 59 58 57 56 55 54 54 54 52 50 51 57 64 68 69 69 69 69 69 70
51 50 53 54 55 56 58 61 64 65 64 62 63 65 66 65 64 63 62 63 63 62 57 56 55 55 55 56 55 54 54 52 51 51 54 61 65 67 68 68 68 68 68
50 49 51 53 53 56 58 62 61 59 61 61 60 64 66 65 64 64 62 61 60 61 59 55 54 56 54 56 55 55 54 53 53 52 52 58 62 65 66 66 67 67 68
50 48 51 52 54 56 59 59 58 59 60 60 60 61 62 62 61 60 59 58 58 58 57 56 55 53 55 54 54 54 54 55 55 52 51 52 59 61 63 64 65 65 66
49 50 50 52 53 53 56 56 56 57 57 56 57 58 58 59 58 57 56 55 55 56 56 55 53 54 54 56 53 55 54 53 53 53 51 51 50 56 59 61 62 63 64
48 49 50 54 52 50 55 55 55 55 55 55 55 56 56 56 56 55 55 54 55 54 53 51 50 47 46 47 47 47 48 50 50 50 49 49 47 47 51 56 58 59 62
48 48 47 49 49 50 52 55 55 55 54 54 54 55 55 54 52 50 48 49 50 49 47 47 44 45 43 45 47 46 44 45 46 49 47 46 46 44 45 51 52 54 58
47 47 47 48 52 53 53 52 52 51 51 52 52 52 51 49 49 48 46 46 47 47 45 44 42 41 40 43 49 46 44 43 44 42 42 45 44 42 42 43 40 44 53
45 45 46 46 50 51 51 50 49 48 48 48 48 49 46 46 47 46 44 44 43 43 43 44 41 40 39 39 44 44 42 42 41 40 39 39 40 41 41 41 40 40 42
45 45 46 47 48 51 53 51 50 48 45 46 45 43 44 44 44 44 42 40 41 41 40 40 41 39 37 36 39 40 37 39 39 40 37 40 36 37 39 40 39 40 38
44 44 47 48 50 52 51 49 47 47 46 44 39 39 40 41 41 40 40 40 39 39 38 37 38 39 36 36 36 39 34 34 33 37 36 34 35 34 34 35 38 39 38
44 44 47 49 50 50 50 49 46 41 39 39 37 37 38 39 39 39 39 38 37 38 37 36 37 36 36 35 35 37 33 34 31 32 32 32 34 35 33 33 34 36 37
44 45 45 46 47 49 50 49 45 39 39 38 36 37 36 37 37 37 37 37 36 36 35 35 35 34 34 32 32 32 31 30 29 29 27 28 30 32 31 32 32 32 35
42 43 44 45 49 49 48 46 43 39 39 37 36 36 35 35 35 35 36 34 34 34 34 33 32 32 31 31 30 30 30 29 28 27 25 25 25 28 30 30 31 31 31

GFSSE_sfc_temp_045.txt.gz
Temp
67 70 75 77 77 77 77 77 76 76 76 77 77 77 77 76 76 76 76 76 76 76 76 76 76 75 75 75 75 75 74 74 74 74 75 76 76 76 76 74 75 74 76
70 72 73 76 77 77 76 76 76 76 76 77 77 77 77 76 76 76 75 75 75 75 76 75 75 75 74 74 74 75 75 74 73 72 72 73 75 76 75 74 75 75 76
70 72 73 74 76 76 76 76 76 76 77 77 77 77 77 76 76 75 75 74 75 75 75 75 74 74 73 73 74 74 73 72 71 71 71 68 71 75 75 74 74 74 75
71 72 72 73 75 75 75 75 75 76 76 77 77 77 76 76 75 75 75 74 75 75 75 74 74 73 73 73 73 73 72 71 70 69 68 68 74 76 76 74 74 73 73
70 71 71 73 75 75 75 75 75 75 76 76 76 76 76 75 75 74 74 74 74 74 74 74 73 73 73 72 72 72 71 69 68 66 65 67 67 74 75 74 72 72 72
70 71 71 73 75 75 75 75 75 75 76 76 76 76 76 75 74 74 73 73 73 74 74 73 73 72 72 72 71 71 70 68 65 61 62 65 66 74 74 73 73 72 72
69 70 71 72 74 74 74 75 75 75 76 76 76 76 75 74 74 73 73 73 73 73 73 73 72 72 72 71 71 70 68 66 60 59 60 61 66 73 73 73 72 72 72
69 70 70 69 71 72 73 74 74 74 75 75 75 75 75 74 74 73 73 73 73 73 73 73 72 72 71 70 69 68 66 64 59 58 59 60 71 73 73 73 72 72 72
65 68 68 69 69 68 70 71 72 73 73 73 74 74 73 73 73 72 72 73 73 73 72 72 71 71 71 69 68 65 64 62 54 56 61 59 71 73 73 73 72 72 72
61 63 64 67 67 67 67 64 67 70 70 71 70 69 68 69 69 69 68 71 72 72 71 71 70 70 69 68 65 63 61 60 53 55 56 64 71 73 73 72 72 72 72
60 59 60 66 67 68 68 65 64 67 67 67 67 65 64 66 66 66 65 68 70 70 70 69 68 66 64 63 63 61 58 52 52 53 54 67 70 71 71 71 71 70 71
54 56 57 58 62 63 68 68 68 68 67 67 67 65 65 65 65 67 63 65 65 65 68 67 65 62 58 54 53 57 52 52 53 52 57 67 69 70 70 69 69 70 70
51 54 55 55 56 58 62 66 68 69 68 67 67 67 66 65 65 64 63 63 61 59 58 58 56 55 54 53 53 52 52 51 50 52 60 65 68 69 69 69 69 69 69
51 51 52 53 54 56 57 64 65 65 64 64 65 65 66 64 63 63 62 62 62 60 55 54 53 54 54 54 53 53 52 51 50 52 57 60 64 67 68 68 68 68 69
50 50 51 51 53 55 56 63 62 62 62 62 64 65 65 64 63 63 62 61 60 60 59 53 53 54 53 54 53 53 52 50 50 50 53 58 61 64 65 66 67 67 68
50 50 50 52 54 56 57 60 59 60 60 60 60 62 63 63 62 61 59 58 58 58 57 56 52 55 55 55 56 56 55 51 50 49 49 49 57 60 62 64 65 66 67
49 50 50 51 54 56 57 56 57 58 58 57 58 59 60 61 60 58 57 56 56 56 55 54 54 54 55 54 52 51 50 49 49 48 47 47 47 54 58 60 62 63 64
48 48 50 53 54 55 55 56 56 55 55 56 56 57 57 57 57 56 55 54 55 54 53 51 51 48 46 48 46 45 45 47 46 46 46 45 45 44 49 55 57 59 61
47 47 48 48 52 52 52 53 54 54 54 54 55 55 55 54 54 54 53 52 52 50 48 46 43 44 46 45 46 43 42 42 42 46 44 43 43 42 42 49 50 53 57
46 47 47 47 50 50 50 52 51 50 50 51 49 51 52 52 52 52 50 50 48 45 43 42 42 40 41 45 47 43 40 39 39 38 38 42 41 40 39 40 38 42 52
45 45 45 46 47 48 47 46 47 48 48 48 48 49 49 49 46 46 45 45 45 43 42 42 40 43 38 39 40 40 39 39 38 37 36 36 38 38 38 38 38 37 39
46 45 45 46 47 48 48 47 47 47 43 46 46 46 47 44 44 44 43 42 41 40 40 40 40 37 36 35 39 38 35 38 38 37 35 37 33 34 36 38 36 37 35
44 45 46 46 47 48 48 46 44 43 46 44 43 43 43 42 41 40 40 39 39 38 37 38 39 39 35 35 35 39 34 34 32 35 34 32 33 32 31 33 35 36 35
45 45 46 47 47 46 46 45 45 41 39 41 41 41 38 39 39 39 39 38 37 37 37 37 38 37 37 35 34 36 31 33 32 32 32 31 32 33 30 31 31 33 33
45 45 45 46 46 47 47 49 47 43 37 37 40 40 36 36 37 37 37 36 36 36 35 36 36 36 34 33 33 32 31 28 28 29 29 29 31 30 30 29 29 28 30
43 44 44 45 45 46 48 48 46 43 38 37 36 38 35 34 34 34 34 34 34 34 34 34 33 33 32 31 31 31 31 30 28 27 26 24 25 28 29 30 28 28 28

GFSSE_sfc_temp_048.txt.gz
Temp
67 70 75 77 77 77 77 77 76 76 76 77 77 77 76 76 76 75 76 76 76 76 76 76 75 76 76 75 76 75 75 74 74 74 75 76 76 76 75 74 74 74 76
69 71 74 76 77 77 77 76 76 76 76 77 77 77 76 76 75 75 75 75 76 76 76 75 75 75 75 75 74 74 74 73 72 72 72 73 75 76 75 74 74 74 75
69 71 73 75 76 76 75 75 76 76 77 77 77 76 76 76 75 75 75 75 75 75 75 75 75 74 74 73 73 73 72 72 71 71 70 71 72 75 75 74 73 74 75
70 71 71 73 75 75 75 75 75 76 76 77 77 76 76 75 75 75 75 75 75 75 75 75 74 74 74 73 72 72 72 71 70 69 67 67 71 75 75 74 73 73 73
69 71 71 73 75 75 75 75 75 75 76 77 76 76 75 75 75 74 74 75 75 75 75 74 74 73 73 72 72 71 71 69 67 65 62 64 65 73 74 73 72 72 72
69 70 71 73 75 75 74 75 75 76 76 76 76 76 75 75 74 74 74 74 74 74 74 74 73 73 72 72 71 70 69 68 64 59 60 64 66 74 74 73 73 72 72
68 69 70 72 73 74 74 75 75 75 76 76 76 76 75 74 74 73 73 73 73 74 73 73 72 72 71 70 70 69 67 65 59 59 59 61 68 74 74 73 73 73 72
68 69 69 69 71 72 73 74 74 74 75 75 75 75 74 74 74 74 73 73 73 73 73 73 72 71 70 69 68 66 64 62 59 57 58 60 72 74 74 73 73 73 72
66 67 68 69 69 68 70 71 72 73 73 73 74 73 73 72 72 72 72 73 73 72 72 72 71 70 69 68 66 65 63 62 54 56 60 61 72 74 74 73 73 72 72
61 64 65 68 69 68 68 65 67 70 70 71 70 69 68 69 69 69 68 70 71 71 70 70 69 69 68 66 64 62 60 59 53 55 57 66 71 73 72 72 71 71 71
59 59 60 66 66 67 66 65 63 67 68 67 66 65 64 66 65 65 65 68 69 69 68 67 66 65 63 63 62 60 58 52 53 54 57 67 70 71 71 71 70 70 70
55 56 57 61 63 64 68 68 68 68 67 67 66 65 65 65 65 65 63 64 65 66 67 66 65 61 57 52 53 56 52 52 54 56 60 67 69 70 70 70 70 70 70
53 55 55 55 58 62 64 67 68 68 66 66 67 67 66 65 65 64 63 62 61 58 56 56 54 54 53 52 52 51 51 51 52 55 59 65 68 69 69 69 69 69 69
53 54 53 54 54 56 57 60 66 66 66 66 66 66 65 64 64 63 62 61 60 59 54 53 52 52 52 53 52 51 50 50 50 52 55 61 64 67 68 69 69 68 68
51 51 52 52 53 54 56 63 62 63 64 64 65 66 65 63 63 63 62 61 59 59 58 52 53 55 52 52 52 52 49 48 48 48 49 58 61 64 66 67 68 68 68
50 50 50 51 52 54 55 60 61 61 62 62 63 64 65 64 63 62 60 59 58 58 57 56 55 56 55 55 54 52 49 48 47 46 45 47 58 60 63 64 65 65 66
49 49 49 50 52 55 55 58 58 59 59 59 59 61 62 63 62 60 58 57 56 56 55 54 54 54 53 52 48 47 47 46 45 45 44 44 43 54 58 60 62 63 64
48 48 49 52 56 58 53 56 55 57 56 57 57 58 59 59 60 58 57 55 55 54 53 51 51 49 45 45 43 42 41 43 43 43 43 42 41 41 48 55 58 60 60
47 47 48 49 54 55 52 54 52 55 55 55 56 56 56 56 57 57 55 54 53 52 50 50 47 48 44 43 43 40 38 39 39 43 40 40 40 39 39 48 51 54 55
46 47 47 47 49 52 52 51 49 51 51 52 52 53 53 53 53 53 52 51 51 49 47 47 44 41 43 43 44 40 37 37 37 36 36 40 38 37 37 37 36 41 51
45 45 46 46 50 51 50 49 47 48 49 49 49 50 51 51 51 51 50 49 47 46 42 45 44 43 38 39 38 37 37 37 36 35 34 34 36 35 36 35 35 35 36
45 45 45 46 50 51 50 45 45 45 43 47 46 47 47 47 48 48 48 43 42 41 41 42 42 36 35 35 37 36 34 36 36 36 33 35 31 32 34 35 34 34 32
44 45 46 46 47 51 50 44 43 45 45 45 44 44 45 46 45 42 42 41 40 41 42 39 39 39 34 33 34 38 33 34 32 34 33 30 30 30 29 31 32 32 31
46 46 47 46 46 47 48 46 45 40 39 40 43 43 42 43 41 40 40 40 38 37 38 37 38 37 36 33 32 35 31 34 33 31 31 31 30 32 29 29 28 30 30
47 45 46 45 46 46 46 47 46 43 38 37 41 41 40 40 38 38 38 37 36 35 35 36 35 36 35 33 32 31 31 29 29 30 30 29 31 29 29 29 27 27 29
43 44 44 45 45 44 45 44 47 42 38 38 39 40 39 38 34 35 35 35 35 35 35 34 33 34 33 32 32 32 32 31 29 28 26 25 25 28 29 29 28 27 27